Погода в Уфе

Россия / Республика Башкортостан     54°44′06″N   55°57′31″E
темп.,
°C
ветер,
м/с
пор.,
м/с
влажн.,
%
обл.,
%
осадки,
мм/ч
давл.,
гПа
погр.,
м
9 мая, вс
вс923:00+14ссв237027 0.6 101677
02:00+12в11735 0.0 101614
05:00+10с118027 0.0 101713
08:00+13св11681 0.0 1017143
11:00+18с11484 0.0 1016637
14:00+22ссз22360 0.0 10161859
17:00+23с223215 0.0 10162498
20:00+21св124358 0.0 1016101
10 мая, пн
пн1023:00+17всв225345 0.0 101749
02:00+14всв11560 0.0 101823
05:00+12всв22615 0.0 101943
08:00+15вюв23550 0.0 1020199
11:00+20вюв344454 0.0 1021941
14:00+22в453699 0.0 10211962
17:00+23ююв3533100 0.0 10212089
20:00+21ююз2344100 0.0 1022144
11 мая, вт
вт1123:00+17з115349 0.0 102311
02:00+15юв115862 0.0 102413
05:00+14ююв116093 0.0 102514
08:00+16юв2348100 0.0 1027168
11:00+20ю2236100 0.0 1028664
14:00+23юз1131100 0.0 10281416
17:00+23ссв2230100 0.0 10271892
20:00+20всв2445100 0.0 1028228
12 мая, ср
ср1223:00+17св115030 0.0 102911
02:00+15всв11559 0.0 102913
05:00+13всв11575 0.0 103011
08:00+16в12475 0.0 1030160
11:00+21всв12345 0.0 1030596
14:00+24св23305 0.0 10301657
17:00+25ссв22311 0.0 10292073
20:00+23ссв244557 0.0 1029343
13 мая, чт
чт1323:00+18св246011 0.0 102995
02:00+16св116086 0.0 102923
05:00+15ссв225843 0.0 102929
08:00+17св12465 0.0 1030162
11:00+23св22365 0.0 1029623
14:00+26ссв11315 0.0 10281596
17:00+27ссв212935 0.0 10281965
20:00+24ссв12375 0.0 102773